Regional Weather Roundup
Issued by NWS Bismarck, ND

Home | Current Version | Previous Version | Text Only | Print | Product List | Glossary On
Versions: 1 2 3 4 5 6 7 8 9 10 11 12 13 14 15 16 17 18 19 20 21 22 23 24 25 26 27 28 29 30 31 32 33 34 35 36 37 38 39 40 41 42 43 44 45 46 47 48 49 50
000
ASUS43 KBIS 310510
RWRBIS

NWR BROADCAST TEXT
NATIONAL WEATHER SERVICE BISMARCK ND
1200 AM CDT THU JUL 31 2014

NOTE: "FAIR" INDICATES FEW OR NO CLOUDS BELOW 12,000 FEET WITH NO
SIGNIFICANT WEATHER AND/OR OBSTRUCTIONS TO VISIBILITY.


CITY           SKY/WX    TMP DP  RH WIND       PRES   REMARKS
WILLISTON      CLEAR     68  53  58 CALM      30.11F
MINOT          CLEAR     65  55  70 SW3       30.09F
MINOT AFB      CLEAR     59  58  94 W3        30.09F
BISMARCK       MOCLDY    64  58  80 CALM      30.11S
DICKINSON      CLEAR     63  52  67 E5        30.14S
GARRISON         N/A     62  59  90 N5        30.11F
HETTINGER ARPT CLEAR     57  53  86 W3        30.16S
JAMESTOWN      CLEAR     63  55  75 W3        30.09S
CARRINGTON     FAIR      61  61 100 CALM      30.11S
CROSBY         MOCLDY    64  59  82 S9        30.13S THUNDER
HARVEY         FAIR      59  59 100 CALM      30.10S
HAZEN          FAIR      55  54  94 SE5       30.12F
LINTON         FAIR      64  57  77 SE6       30.11S
MANDAN         MOCLDY    68  57  68 SE3       30.13S
RUGBY          FAIR      61  57  88 CALM      30.09S
STANLEY        FAIR      59  59 100 CALM      30.13S
TIOGA          FAIR      55  55 100 E3        30.16R
WATFORD CITY   FAIR      63  54  72 SE8       30.10F
$$

CITY           SKY/WX    TMP DP  RH WIND       PRES   REMARKS
GRAND FORKS    CLEAR     61  57  87 W6        30.04S
GRAND FORKS AF CLEAR     60  59  99 W2        30.05S
DEVILS LAKE    CLEAR     66  55  68 CALM      30.07S
FARGO          CLEAR     64  56  75 CALM      30.04F
CANDO          FAIR      59  57  94 CALM      30.09S
CAVALIER       FAIR      64  59  82 W6        30.04S
GRAFTON        FAIR      64  61  88 W6        30.04S
GWINNER        CLEAR     63  57  82 W5        30.09F
LANGDON        FAIR      59  57  94 CALM      30.08F
ROLLA          FAIR      59  57  94 CALM      30.11S
$$

CITY           SKY/WX    TMP DP  RH WIND       PRES   REMARKS
ABERDEEN       MOCLDY    58  55  90 CALM      30.09F
MOBRIDGE       CLEAR     64  57  78 S6        30.08F
BUFFALO          N/A     70  52  52 CALM      30.12S
RAPID CITY     PTCLDY    64  50  60 N10       30.18R
GLASGOW        PTCLDY    72  50  45 SE12      30.05S
SIDNEY         PTCLDY    64  48  55 CALM      30.12S
WOLF POINT     PTCLDY    74  51  44 CALM      30.07F
GLENDIVE       PTCLDY    68  48  49 E5        30.14F
MILES CITY     CLEAR     72  45  37 SE6       30.13S
BAKER          CLEAR     65  49  56 SE5       30.18S
$$

CITY           SKY/WX    TMP DP  RH WIND       PRES   REMARKS
BILLINGS       PTCLDY    77  36  22 SE6       30.15S
GREAT FALLS    MOCLDY    72  43  35 W10       30.12R
$$



USA.gov is the U.S. government's official web portal to all federal, state and local government web resources and services.